This is the latest recevied weather packets stored in our database for station/object KD4EG. If no packets are shown the sender has not sent any weather packets the latest 10 day(s).
| Time | Temp. | Humidity | Pressure | Rain* | Wind** | Luminosity | Snow |
|---|---|---|---|---|---|---|---|
| 1777926784 | 24.44° C | 44% | 1013.9 hPa | 0 mm | - | 571 W/m² | - |
| 1777926478 | 24.44° C | 44% | 1013.8 hPa | 0 mm | - | 418 W/m² | - |
| 1777926176 | 23.89° C | 44% | 1014 hPa | 0 mm | - | 327 W/m² | - |
| 1777925873 | 23.33° C | 45% | 1014.1 hPa | 0 mm | - | 327 W/m² | - |
| 1777925570 | 23.33° C | 45% | 1014.2 hPa | 0 mm | - | 225 W/m² | - |
| 1777925268 | 23.33° C | 45% | 1014.4 hPa | 0 mm | - | 260 W/m² | - |
| 1777924963 | 23.33° C | 44% | 1014.6 hPa | 0 mm | - | 288 W/m² | - |
| 1777924660 | 23.33° C | 44% | 1014.6 hPa | 0 mm | - | 337 W/m² | - |
| 1777924356 | 23.33° C | 45% | 1014.7 hPa | 0 mm | - | 360 W/m² | - |
| 1777924054 | 23.89° C | 46% | 1014.6 hPa | 0 mm | - | 383 W/m² | - |
| 1777923749 | 23.33° C | 45% | 1014.6 hPa | 0 mm | - | 476 W/m² | - |
| 1777923446 | 23.33° C | 45% | 1014.6 hPa | 0 mm | - | 432 W/m² | - |
| 1777923144 | 23.33° C | 45% | 1014.6 hPa | 0 mm | - | 387 W/m² | - |
| 1777922842 | 22.78° C | 45% | 1015.1 hPa | 0 mm | - | 357 W/m² | - |
| 1777922540 | 22.78° C | 46% | 1014.9 hPa | 0 mm | - | 433 W/m² | - |
| 1777922238 | 22.78° C | 45% | 1015.2 hPa | 0 mm | - | 507 W/m² | - |
| 1777921935 | 22.78° C | 45% | 1015 hPa | 0 mm | - | 510 W/m² | - |
| 1777921630 | 22.78° C | 46% | 1015.3 hPa | 0 mm | - | 616 W/m² | - |
| 1777921326 | 22.78° C | 46% | 1015.2 hPa | 0 mm | - | 522 W/m² | - |
| 1777921023 | 23.33° C | 44% | 1015.1 hPa | 0 mm | - | 517 W/m² | - |
| 1777920719 | 22.78° C | 45% | 1015.3 hPa | 0 mm | - | 491 W/m² | - |
| 1777920416 | 22.78° C | 45% | 1015.3 hPa | 0 mm | - | 563 W/m² | - |
| 1777920111 | 22.78° C | 45% | 1015.4 hPa | 0 mm | - | 410 W/m² | - |
| 1777919808 | 21.67° C | 47% | 1015.2 hPa | 0 mm | - | 616 W/m² | - |
| 1777919505 | 21.67° C | 47% | 1015.6 hPa | 0 mm | - | 310 W/m² | - |
* Rain latest hour (hover to see other rain measurements)
** Current wind speed in m/s (hover to see current wind gust speed)